| time (UTC) | temp F | wind direction | speed MPH | gust MPH | rain 1hr in | rain 24hr in | rain mn in | humidity % | barometer mb |
| 20260509034603 | 62 | 346 | 0.0 | 0.0 | 0.00 | 0.00 | 0.00 | 70 | 1022.6 |
| 20260509034058 | 62 | 346 | 0.0 | 0.0 | 0.00 | 0.00 | 0.00 | 69 | 1022.6 |
| 20260509033552 | 62 | 346 | 0.0 | 0.0 | 0.00 | 0.00 | 0.00 | 68 | 1022.5 |
| 20260509033045 | 63 | 346 | 0.0 | 2.0 | 0.00 | 0.00 | 0.00 | 67 | 1022.4 |
| 20260509032543 | 63 | 348 | 0.0 | 1.0 | 0.00 | 0.00 | 0.00 | 65 | 1022.3 |
| 20260509032539 | 63 | 346 | 0.0 | 2.0 | 0.00 | 0.00 | 0.00 | 66 | 1022.4 |
| 20260509031527 | 64 | 348 | 0.0 | 1.0 | 0.00 | 0.00 | 0.00 | 66 | 1022.2 |
| 20260509031021 | 64 | 348 | 0.0 | 1.0 | 0.00 | 0.00 | 0.00 | 65 | 1022.2 |
| 20260509030519 | 65 | 349 | 0.0 | 0.0 | 0.00 | 0.00 | 0.00 | 63 | 1022.0 |
| 20260509030515 | 65 | 348 | 0.0 | 0.0 | 0.00 | 0.00 | 0.00 | 64 | 1022.1 |
| 20260509030348 | 65 | 348 | 0.0 | 1.0 | 0.00 | 0.00 | 0.00 | 63 | 1021.9 |
| 20260509025007 | 65 | 348 | 1.0 | 2.0 | 0.00 | 0.00 | 0.00 | 62 | 1021.8 |
| 20260509025003 | 65 | 348 | 0.0 | 2.0 | 0.00 | 0.00 | 0.00 | 63 | 1021.8 |
| 20260509023959 | 66 | 348 | 0.0 | 3.0 | 0.00 | 0.00 | 0.00 | 62 | 1021.9 |
| 20260509023457 | 66 | 351 | 1.0 | 3.0 | 0.00 | 0.00 | 0.00 | 62 | 1021.9 |
| 20260509022956 | 66 | 5 | 1.0 | 4.0 | 0.00 | 0.00 | 0.00 | 61 | 1021.9 |
| 20260509022459 | 66 | 45 | 1.0 | 4.0 | 0.00 | 0.00 | 0.00 | 61 | 1021.9 |
| 20260509021955 | 66 | 269 | 1.0 | 2.0 | 0.00 | 0.00 | 0.00 | 60 | 1021.9 |
| 20260509021836 | 67 | 199 | 1.0 | 3.0 | 0.00 | 0.00 | 0.00 | 60 | 1022.0 |
| 20260509021725 | 66 | 269 | 1.0 | 3.0 | 0.00 | 0.00 | 0.00 | 60 | 1022.0 |
| 20260509020455 | 67 | 309 | 0.0 | 2.0 | 0.00 | 0.00 | 0.00 | 60 | 1021.9 |
| 20260509020002 | 67 | 235 | 0.0 | 2.0 | 0.00 | 0.00 | 0.00 | 60 | 1022.0 |
| 20260509015454 | 67 | 235 | 1.0 | 2.0 | 0.00 | 0.00 | 0.00 | 59 | 1022.0 |
| 20260509014955 | 67 | 202 | 1.0 | 3.0 | 0.00 | 0.00 | 0.00 | 59 | 1022.0 |
| 20260509014452 | 67 | 209 | 1.0 | 3.0 | 0.00 | 0.00 | 0.00 | 59 | 1022.1 |
| 20260509013952 | 67 | 200 | 1.0 | 2.0 | 0.00 | 0.00 | 0.00 | 58 | 1022.0 |
| 20260509013453 | 68 | 200 | 1.0 | 2.0 | 0.00 | 0.00 | 0.00 | 57 | 1021.9 |
| 20260509012947 | 68 | 198 | 1.0 | 4.0 | 0.00 | 0.00 | 0.00 | 57 | 1022.0 |
| 20260509012446 | 68 | 201 | 1.0 | 4.0 | 0.00 | 0.00 | 0.00 | 57 | 1022.1 |
| 20260509011950 | 68 | 302 | 1.0 | 4.0 | 0.00 | 0.00 | 0.00 | 57 | 1022.2 |
| 20260509011946 | 68 | 175 | 0.0 | 2.0 | 0.00 | 0.00 | 0.00 | 57 | 1022.1 |
| 20260509011828 | 68 | 283 | 1.0 | 4.0 | 0.00 | 0.00 | 0.00 | 56 | 1022.2 |
| 20260509010447 | 68 | 150 | 1.0 | 4.0 | 0.00 | 0.00 | 0.00 | 56 | 1022.3 |
| 20260509005949 | 69 | 222 | 2.0 | 5.0 | 0.00 | 0.00 | 0.00 | 56 | 1022.3 |
| 20260509005446 | 69 | 74 | 1.0 | 5.0 | 0.00 | 0.00 | 0.00 | 54 | 1022.4 |
| 20260509004947 | 69 | 355 | 1.0 | 4.0 | 0.00 | 0.00 | 0.00 | 54 | 1022.3 |
| 20260509004446 | 69 | 293 | 1.0 | 3.0 | 0.00 | 0.00 | 0.00 | 54 | 1022.4 |
| 20260509003947 | 69 | 294 | 1.0 | 4.0 | 0.00 | 0.00 | 0.00 | 54 | 1022.4 |
| 20260509003451 | 69 | 329 | 1.0 | 4.0 | 0.00 | 0.00 | 0.00 | 53 | 1022.4 |
| 20260509003447 | 69 | 327 | 1.0 | 4.0 | 0.00 | 0.00 | 0.00 | 53 | 1022.4 |
| 20260509003326 | 69 | 202 | 2.0 | 4.0 | 0.00 | 0.00 | 0.00 | 54 | 1022.4 |
| 20260509001944 | 70 | 350 | 2.0 | 6.0 | 0.00 | 0.00 | 0.00 | 53 | 1022.4 |
| 20260509001444 | 70 | 263 | 3.0 | 6.0 | 0.00 | 0.00 | 0.00 | 53 | 1022.4 |
| 20260509000945 | 70 | 177 | 2.0 | 9.0 | 0.00 | 0.00 | 0.00 | 52 | 1022.3 |
| 20260509000443 | 71 | 265 | 1.0 | 9.0 | 0.00 | 0.00 | 0.00 | 52 | 1022.4 |
| 20260508235942 | 71 | 350 | 1.0 | 5.0 | 0.00 | 0.00 | 0.00 | 52 | 1022.4 |
| 20260508235443 | 70 | 302 | 1.0 | 5.0 | 0.00 | 0.00 | 0.00 | 52 | 1022.4 |
| 20260508234943 | 70 | 214 | 1.0 | 7.0 | 0.00 | 0.00 | 0.00 | 54 | 1022.4 |
| 20260508234445 | 70 | 192 | 2.0 | 7.0 | 0.00 | 0.00 | 0.00 | 52 | 1022.4 |
| 20260508233942 | 70 | 233 | 2.0 | 5.0 | 0.00 | 0.00 | 0.00 | 52 | 1022.5 |
| 20260508233451 | 70 | 26 | 1.0 | 3.0 | 0.00 | 0.00 | 0.00 | 53 | 1022.4 |
| 20260508233446 | 71 | 175 | 1.0 | 5.0 | 0.00 | 0.00 | 0.00 | 51 | 1022.6 |
| 20260508232442 | 70 | 237 | 2.0 | 4.0 | 0.00 | 0.00 | 0.00 | 53 | 1022.5 |
| 20260508231943 | 70 | 272 | 1.0 | 4.0 | 0.00 | 0.00 | 0.00 | 52 | 1022.4 |
| 20260508231822 | 70 | 294 | 2.0 | 7.0 | 0.00 | 0.00 | 0.00 | 52 | 1022.6 |
| 20260508231713 | 70 | 67 | 1.0 | 7.0 | 0.00 | 0.00 | 0.00 | 54 | 1022.4 |
| 20260508230442 | 70 | 194 | 2.0 | 4.0 | 0.00 | 0.00 | 0.00 | 52 | 1022.6 |
| 20260508225943 | 70 | 186 | 1.0 | 4.0 | 0.00 | 0.00 | 0.00 | 51 | 1022.6 |
| 20260508225443 | 70 | 209 | 1.0 | 5.0 | 0.00 | 0.00 | 0.00 | 55 | 1022.6 |
| 20260508224942 | 69 | 227 | 1.0 | 5.0 | 0.00 | 0.00 | 0.00 | 54 | 1022.6 |
| 20260508224813 | 69 | 163 | 1.0 | 6.0 | 0.00 | 0.00 | 0.00 | 53 | 1022.7 |
| 20260508224709 | 69 | 175 | 1.0 | 6.0 | 0.00 | 0.00 | 0.00 | 53 | 1022.7 |
| 20260508223429 | 70 | 156 | 1.0 | 7.0 | 0.00 | 0.00 | 0.00 | 52 | 1022.8 |
| 20260508223425 | 70 | 217 | 2.0 | 7.0 | 0.00 | 0.00 | 0.00 | 52 | 1022.8 |
| 20260508222417 | 70 | 355 | 1.0 | 4.0 | 0.00 | 0.00 | 0.00 | 50 | 1022.8 |
| 20260508221911 | 70 | 216 | 1.0 | 6.0 | 0.00 | 0.00 | 0.00 | 54 | 1022.7 |
| 20260508221407 | 69 | 243 | 1.0 | 6.0 | 0.00 | 0.00 | 0.00 | 52 | 1022.8 |
| 20260508220859 | 69 | 136 | 2.0 | 4.0 | 0.00 | 0.00 | 0.00 | 55 | 1022.9 |
| 20260508220856 | 69 | 138 | 1.0 | 4.0 | 0.00 | 0.00 | 0.00 | 53 | 1022.9 |
| 20260508215847 | 68 | 202 | 2.0 | 7.0 | 0.00 | 0.00 | 0.00 | 53 | 1023.0 |
| 20260508215342 | 68 | 219 | 2.0 | 7.0 | 0.00 | 0.00 | 0.00 | 53 | 1023.1 |
| 20260508214837 | 69 | 189 | 2.0 | 7.0 | 0.00 | 0.00 | 0.00 | 52 | 1023.1 |
| 20260508214329 | 69 | 135 | 1.0 | 7.0 | 0.00 | 0.00 | 0.00 | 54 | 1023.1 |
| 20260508213824 | 68 | 121 | 1.0 | 6.0 | 0.00 | 0.00 | 0.00 | 57 | 1023.0 |
| 20260508213318 | 68 | 197 | 1.0 | 6.0 | 0.00 | 0.00 | 0.00 | 52 | 1023.0 |
| 20260508212812 | 68 | 209 | 1.0 | 4.0 | 0.00 | 0.00 | 0.00 | 55 | 1022.9 |
| 20260508212306 | 68 | 197 | 1.0 | 4.0 | 0.00 | 0.00 | 0.00 | 55 | 1023.0 |
| 20260508212259 | 67 | 110 | 1.0 | 5.0 | 0.00 | 0.00 | 0.00 | 58 | 1022.9 |
| 20260508212134 | 67 | 280 | 2.0 | 5.0 | 0.00 | 0.00 | 0.00 | 57 | 1022.9 |
| 20260508210748 | 67 | 213 | 2.0 | 5.0 | 0.00 | 0.00 | 0.00 | 58 | 1022.9 |
| 20260508210243 | 67 | 306 | 2.0 | 5.0 | 0.00 | 0.00 | 0.00 | 55 | 1022.9 |
| 20260508205738 | 67 | 215 | 1.0 | 4.0 | 0.00 | 0.00 | 0.00 | 57 | 1023.0 |
| 20260508205249 | 67 | 198 | 1.0 | 4.0 | 0.00 | 0.00 | 0.00 | 55 | 1022.9 |
| 20260508205237 | 67 | 126 | 1.0 | 3.0 | 0.00 | 0.00 | 0.00 | 58 | 1022.9 |
| 20260508204738 | 67 | 228 | 1.0 | 4.0 | 0.00 | 0.00 | 0.00 | 56 | 1023.0 |
| 20260508203739 | 66 | 137 | 2.0 | 4.0 | 0.00 | 0.00 | 0.00 | 58 | 1023.0 |
| 20260508203237 | 66 | 136 | 2.0 | 6.0 | 0.00 | 0.00 | 0.00 | 56 | 1022.9 |
| 20260508202739 | 67 | 175 | 1.0 | 6.0 | 0.00 | 0.00 | 0.00 | 55 | 1023.0 |
| 20260508202238 | 66 | 148 | 1.0 | 3.0 | 0.00 | 0.00 | 0.00 | 59 | 1023.0 |
| 20260508201738 | 66 | 254 | 1.0 | 3.0 | 0.00 | 0.00 | 0.00 | 55 | 1022.9 |
| 20260508201243 | 66 | 314 | 1.0 | 4.0 | 0.00 | 0.00 | 0.00 | 55 | 1023.0 |
| 20260508201239 | 66 | 243 | 1.0 | 4.0 | 0.00 | 0.00 | 0.00 | 58 | 1023.0 |
| 20260508200236 | 66 | 176 | 1.0 | 3.0 | 0.00 | 0.00 | 0.00 | 58 | 1023.0 |
| 20260508195735 | 65 | 188 | 1.0 | 3.0 | 0.00 | 0.00 | 0.00 | 59 | 1023.1 |
| 20260508195235 | 64 | 130 | 1.0 | 4.0 | 0.00 | 0.00 | 0.00 | 61 | 1023.1 |
| 20260508194743 | 64 | 189 | 1.0 | 4.0 | 0.00 | 0.00 | 0.00 | 60 | 1023.3 |
| 20260508194735 | 64 | 130 | 1.0 | 4.0 | 0.00 | 0.00 | 0.00 | 57 | 1023.3 |
| 20260508193731 | 63 | 223 | 2.0 | 4.0 | 0.00 | 0.00 | 0.00 | 63 | 1023.5 |
| 20260508193239 | 62 | 223 | 1.0 | 4.0 | 0.00 | 0.00 | 0.00 | 63 | 1023.3 |
| 20260508193231 | 62 | 209 | 1.0 | 3.0 | 0.00 | 0.00 | 0.00 | 62 | 1023.4 |
| 20260508192225 | 62 | 348 | 1.0 | 6.0 | 0.00 | 0.00 | 0.00 | 62 | 1023.3 |
| 20260508191722 | 62 | 317 | 1.0 | 6.0 | 0.00 | 0.00 | 0.00 | 65 | 1023.4 |
| 20260508191221 | 61 | 205 | 1.0 | 4.0 | 0.00 | 0.00 | 0.00 | 63 | 1023.4 |
| 20260508190723 | 61 | 202 | 2.0 | 5.0 | 0.00 | 0.00 | 0.00 | 67 | 1023.5 |
| 20260508190719 | 61 | 214 | 1.0 | 4.0 | 0.00 | 0.00 | 0.00 | 62 | 1023.4 |
| 20260508185720 | 59 | 242 | 2.0 | 5.0 | 0.00 | 0.00 | 0.00 | 65 | 1023.4 |
| 20260508185217 | 59 | 225 | 2.0 | 6.0 | 0.00 | 0.00 | 0.00 | 66 | 1023.5 |
| 20260508184718 | 60 | 259 | 2.0 | 6.0 | 0.00 | 0.00 | 0.00 | 64 | 1023.5 |
| 20260508184217 | 60 | 205 | 2.0 | 8.0 | 0.00 | 0.00 | 0.00 | 64 | 1023.5 |
| 20260508183716 | 61 | 228 | 2.0 | 8.0 | 0.00 | 0.00 | 0.00 | 63 | 1023.5 |
| 20260508183216 | 61 | 175 | 2.0 | 6.0 | 0.00 | 0.00 | 0.00 | 65 | 1023.5 |
| 20260508182720 | 59 | 144 | 1.0 | 5.0 | 0.00 | 0.00 | 0.00 | 68 | 1023.5 |
| 20260508182716 | 60 | 231 | 2.0 | 6.0 | 0.00 | 0.00 | 0.00 | 67 | 1023.6 |
| 20260508181713 | 58 | 142 | 1.0 | 5.0 | 0.00 | 0.00 | 0.00 | 70 | 1023.5 |
| 20260508181215 | 57 | 185 | 1.0 | 5.0 | 0.00 | 0.00 | 0.00 | 69 | 1023.6 |
| 20260508180713 | 57 | 158 | 1.0 | 6.0 | 0.00 | 0.00 | 0.00 | 69 | 1023.5 |
| 20260508180216 | 58 | 194 | 2.0 | 4.0 | 0.00 | 0.00 | 0.00 | 67 | 1023.5 |
| 20260508180211 | 57 | 236 | 2.0 | 6.0 | 0.00 | 0.00 | 0.00 | 69 | 1023.5 |
| 20260508175211 | 58 | 238 | 2.0 | 4.0 | 0.00 | 0.00 | 0.00 | 67 | 1023.5 |
| 20260508174712 | 58 | 122 | 2.0 | 4.0 | 0.00 | 0.00 | 0.00 | 68 | 1023.3 |
| 20260508174212 | 57 | 214 | 1.0 | 4.0 | 0.00 | 0.00 | 0.00 | 72 | 1023.3 |
| 20260508173721 | 55 | 181 | 2.0 | 6.0 | 0.00 | 0.00 | 0.00 | 73 | 1023.3 |
| 20260508173711 | 56 | 229 | 1.0 | 6.0 | 0.00 | 0.00 | 0.00 | 75 | 1023.3 |
| 20260508172716 | 56 | 224 | 2.0 | 9.0 | 0.00 | 0.00 | 0.00 | 72 | 1023.2 |
| 20260508172216 | 56 | 229 | 1.0 | 9.0 | 0.00 | 0.00 | 0.00 | 72 | 1023.2 |
| 20260508171715 | 56 | 205 | 1.0 | 3.0 | 0.00 | 0.00 | 0.00 | 74 | 1023.1 |
| 20260508171213 | 55 | 206 | 2.0 | 6.0 | 0.00 | 0.00 | 0.00 | 76 | 1023.2 |
| 20260508170711 | 54 | 178 | 1.0 | 6.0 | 0.00 | 0.00 | 0.00 | 75 | 1023.1 |
| 20260508170212 | 54 | 211 | 1.0 | 4.0 | 0.00 | 0.00 | 0.00 | 77 | 1022.9 |
| 20260508165712 | 54 | 138 | 2.0 | 9.0 | 0.00 | 0.00 | 0.00 | 76 | 1022.9 |
| 20260508165214 | 54 | 209 | 2.0 | 9.0 | 0.00 | 0.00 | 0.00 | 76 | 1023.0 |
| 20260508164711 | 54 | 219 | 1.0 | 9.0 | 0.00 | 0.00 | 0.00 | 76 | 1022.9 |
| 20260508164212 | 54 | 138 | 1.0 | 4.0 | 0.00 | 0.00 | 0.00 | 77 | 1022.7 |
| 20260508163710 | 53 | 233 | 1.0 | 7.0 | 0.00 | 0.00 | 0.00 | 80 | 1022.8 |
| 20260508163205 | 53 | 121 | 2.0 | 7.0 | 0.00 | 0.00 | 0.00 | 78 | 1022.7 |
| 20260508162659 | 53 | 140 | 2.0 | 5.0 | 0.00 | 0.00 | 0.00 | 79 | 1022.4 |
| 20260508162154 | 53 | 187 | 1.0 | 4.0 | 0.00 | 0.00 | 0.00 | 81 | 1022.4 |
| 20260508161647 | 52 | 140 | 2.0 | 7.0 | 0.00 | 0.00 | 0.00 | 82 | 1022.5 |
| 20260508161140 | 52 | 126 | 2.0 | 7.0 | 0.00 | 0.00 | 0.00 | 82 | 1022.2 |
| 20260508160644 | 51 | 128 | 1.0 | 4.0 | 0.00 | 0.00 | 0.00 | 84 | 1022.1 |
| 20260508160640 | 51 | 128 | 1.0 | 4.0 | 0.00 | 0.00 | 0.00 | 84 | 1022.2 |
| 20260508160523 | 51 | 127 | 1.0 | 4.0 | 0.00 | 0.00 | 0.00 | 85 | 1022.2 |
| 20260508155139 | 51 | 173 | 1.0 | 5.0 | 0.00 | 0.00 | 0.00 | 85 | 1022.5 |
| 20260508154645 | 50 | 115 | 2.0 | 5.0 | 0.00 | 0.00 | 0.00 | 86 | 1022.3 |
| 20260508154640 | 51 | 119 | 2.0 | 5.0 | 0.00 | 0.00 | 0.00 | 85 | 1022.4 |
| 20260508153640 | 50 | 134 | 2.0 | 5.0 | 0.00 | 0.00 | 0.00 | 87 | 1022.1 |
| 20260508153142 | 50 | 129 | 2.0 | 5.0 | 0.00 | 0.00 | 0.00 | 87 | 1022.4 |
| 20260508152639 | 49 | 138 | 2.0 | 5.0 | 0.00 | 0.00 | 0.00 | 88 | 1022.3 |
| 20260508152144 | 49 | 136 | 1.0 | 3.0 | 0.00 | 0.00 | 0.00 | 90 | 1022.4 |
| 20260508151642 | 48 | 128 | 2.0 | 3.0 | 0.00 | 0.00 | 0.00 | 89 | 1022.2 |
| 20260508151139 | 48 | 127 | 2.0 | 5.0 | 0.00 | 0.00 | 0.00 | 90 | 1022.0 |
| 20260508150640 | 48 | 134 | 1.0 | 5.0 | 0.00 | 0.00 | 0.00 | 90 | 1022.1 |
| 20260508150140 | 48 | 145 | 1.0 | 3.0 | 0.00 | 0.00 | 0.00 | 90 | 1022.1 |
| 20260508145643 | 48 | 140 | 2.0 | 3.0 | 0.00 | 0.00 | 0.00 | 90 | 1022.2 |
| 20260508145639 | 48 | 145 | 2.0 | 3.0 | 0.00 | 0.00 | 0.00 | 90 | 1022.2 |
| 20260508144633 | 48 | 140 | 2.0 | 3.0 | 0.00 | 0.00 | 0.00 | 90 | 1022.3 |
| 20260508144628 | 47 | 138 | 2.0 | 4.0 | 0.00 | 0.00 | 0.00 | 90 | 1022.3 |
| 20260508143620 | 47 | 139 | 2.0 | 4.0 | 0.00 | 0.00 | 0.00 | 91 | 1022.6 |
| 20260508143115 | 47 | 139 | 2.0 | 5.0 | 0.00 | 0.00 | 0.00 | 91 | 1022.6 |
| 20260508142610 | 47 | 138 | 2.0 | 5.0 | 0.00 | 0.00 | 0.00 | 91 | 1022.5 |
| 20260508142105 | 47 | 138 | 2.0 | 5.0 | 0.00 | 0.00 | 0.00 | 91 | 1022.5 |
| 20260508141557 | 47 | 138 | 2.0 | 5.0 | 0.00 | 0.00 | 0.00 | 91 | 1022.3 |
| 20260508141051 | 47 | 155 | 2.0 | 4.0 | 0.00 | 0.00 | 0.00 | 91 | 1022.4 |
| 20260508140544 | 47 | 163 | 1.0 | 4.0 | 0.00 | 0.00 | 0.00 | 91 | 1022.5 |
| 20260508140540 | 46 | 163 | 1.0 | 4.0 | 0.00 | 0.00 | 0.00 | 90 | 1022.4 |
| 20260508135533 | 46 | 165 | 2.0 | 4.0 | 0.00 | 0.00 | 0.00 | 90 | 1022.2 |
| 20260508135027 | 46 | 165 | 1.0 | 4.0 | 0.00 | 0.00 | 0.00 | 90 | 1022.2 |
| 20260508134522 | 46 | 207 | 1.0 | 2.0 | 0.00 | 0.00 | 0.00 | 90 | 1022.0 |
| 20260508134015 | 46 | 207 | 1.0 | 2.0 | 0.00 | 0.00 | 0.00 | 90 | 1021.9 |
| 20260508133509 | 46 | 208 | 0.0 | 2.0 | 0.00 | 0.00 | 0.00 | 89 | 1021.8 |
| 20260508133004 | 46 | 208 | 0.0 | 0.0 | 0.00 | 0.00 | 0.00 | 89 | 1021.8 |
| 20260508132457 | 46 | 209 | 0.0 | 0.0 | 0.00 | 0.00 | 0.00 | 89 | 1021.7 |
| 20260508131951 | 46 | 209 | 0.0 | 0.0 | 0.00 | 0.00 | 0.00 | 89 | 1021.7 |
| 20260508131444 | 46 | 213 | 0.0 | 0.0 | 0.00 | 0.00 | 0.00 | 88 | 1021.6 |
| 20260508130938 | 46 | 229 | 0.0 | 1.0 | 0.00 | 0.00 | 0.00 | 88 | 1021.5 |
| 20260508130432 | 46 | 229 | 0.0 | 2.0 | 0.00 | 0.00 | 0.00 | 88 | 1021.4 |
| 20260508130203 | 47 | 229 | 0.0 | 2.0 | 0.00 | 0.00 | 0.00 | 88 | 1021.1 |
| 20260508125928 | 47 | 230 | 0.0 | 1.0 | 0.00 | 0.00 | 0.00 | 88 | 1021.0 |
| 20260508124920 | 47 | 230 | 0.0 | 1.0 | 0.00 | 0.00 | 0.00 | 88 | 1021.0 |
| 20260508124409 | 47 | 230 | 0.0 | 1.0 | 0.00 | 0.00 | 0.00 | 88 | 1020.8 |
| 20260508123907 | 47 | 230 | 0.0 | 1.0 | 0.00 | 0.00 | 0.00 | 88 | 1020.7 |
| 20260508123902 | 47 | 230 | 0.0 | 0.0 | 0.00 | 0.00 | 0.00 | 88 | 1020.8 |
| 20260508122906 | 47 | 231 | 0.0 | 1.0 | 0.00 | 0.00 | 0.00 | 88 | 1020.6 |
| 20260508122902 | 47 | 230 | 0.0 | 1.0 | 0.00 | 0.00 | 0.00 | 88 | 1020.7 |
| 20260508121857 | 47 | 232 | 0.0 | 1.0 | 0.00 | 0.00 | 0.00 | 88 | 1020.5 |
| 20260508121355 | 48 | 232 | 0.0 | 1.0 | 0.00 | 0.00 | 0.00 | 89 | 1020.4 |
| 20260508120855 | 48 | 232 | 0.0 | 1.0 | 0.00 | 0.00 | 0.00 | 89 | 1020.4 |
| 20260508120355 | 48 | 232 | 0.0 | 1.0 | 0.00 | 0.00 | 0.00 | 89 | 1020.5 |
| 20260508115902 | 48 | 232 | 0.0 | 2.0 | 0.00 | 0.00 | 0.00 | 88 | 1020.4 |
| 20260508115857 | 48 | 232 | 0.0 | 1.0 | 0.00 | 0.00 | 0.00 | 89 | 1020.5 |
| 20260508114851 | 48 | 232 | 0.0 | 2.0 | 0.00 | 0.00 | 0.00 | 88 | 1020.3 |
| 20260508114351 | 48 | 116 | 0.0 | 0.0 | 0.00 | 0.00 | 0.00 | 88 | 1020.2 |
| 20260508113851 | 48 | 116 | 0.0 | 0.0 | 0.00 | 0.00 | 0.00 | 88 | 1020.2 |
| 20260508113352 | 48 | 116 | 0.0 | 0.0 | 0.00 | 0.00 | 0.00 | 89 | 1020.4 |
| 20260508112848 | 48 | 116 | 0.0 | 0.0 | 0.00 | 0.00 | 0.00 | 88 | 1020.3 |
| 20260508112349 | 48 | 116 | 0.0 | 0.0 | 0.00 | 0.00 | 0.00 | 89 | 1020.0 |
| 20260508111848 | 48 | 116 | 0.0 | 0.0 | 0.00 | 0.00 | 0.00 | 89 | 1020.0 |
| 20260508111350 | 49 | 116 | 0.0 | 0.0 | 0.00 | 0.00 | 0.00 | 88 | 1019.7 |
| 20260508111346 | 49 | 116 | 0.0 | 0.0 | 0.00 | 0.00 | 0.00 | 88 | 1019.8 |
| 20260508110345 | 49 | 116 | 0.0 | 0.0 | 0.00 | 0.00 | 0.00 | 88 | 1019.7 |
| 20260508105842 | 49 | 116 | 0.0 | 0.0 | 0.00 | 0.00 | 0.00 | 88 | 1019.6 |
| 20260508105343 | 49 | 116 | 0.0 | 0.0 | 0.00 | 0.00 | 0.00 | 88 | 1019.5 |
| 20260508104843 | 49 | 116 | 0.0 | 0.0 | 0.00 | 0.00 | 0.00 | 88 | 1019.5 |
| 20260508104343 | 49 | 116 | 0.0 | 0.0 | 0.00 | 0.00 | 0.00 | 88 | 1019.5 |
| 20260508103843 | 49 | 116 | 0.0 | 0.0 | 0.00 | 0.00 | 0.00 | 87 | 1019.4 |
| 20260508103342 | 49 | 116 | 0.0 | 0.0 | 0.00 | 0.00 | 0.00 | 87 | 1019.5 |
| 20260508102843 | 49 | 116 | 0.0 | 0.0 | 0.00 | 0.00 | 0.00 | 87 | 1019.4 |
| 20260508102342 | 49 | 116 | 0.0 | 0.0 | 0.00 | 0.00 | 0.00 | 87 | 1019.4 |
| 20260508101838 | 49 | 116 | 0.0 | 0.0 | 0.00 | 0.00 | 0.00 | 87 | 1019.2 |
| 20260508101338 | 49 | 116 | 0.0 | 2.0 | 0.00 | 0.00 | 0.00 | 86 | 1019.1 |
| 20260508101109 | 49 | 116 | 1.0 | 2.0 | 0.00 | 0.00 | 0.00 | 86 | 1019.1 |
| 20260508100948 | 50 | 115 | 2.0 | 3.0 | 0.00 | 0.00 | 0.00 | 85 | 1019.1 |
| 20260508100338 | 50 | 116 | 1.0 | 2.0 | 0.00 | 0.00 | 0.00 | 86 | 1019.1 |
| 20260508095838 | 50 | 115 | 1.0 | 2.0 | 0.00 | 0.00 | 0.00 | 86 | 1019.1 |
| 20260508094839 | 50 | 115 | 2.0 | 3.0 | 0.00 | 0.00 | 0.00 | 85 | 1019.0 |
| 20260508094338 | 50 | 111 | 2.0 | 3.0 | 0.00 | 0.00 | 0.00 | 85 | 1019.0 |
| 20260508093839 | 49 | 108 | 2.0 | 3.0 | 0.00 | 0.00 | 0.00 | 84 | 1018.8 |
| 20260508093834 | 50 | 330 | 2.0 | 3.0 | 0.00 | 0.00 | 0.00 | 83 | 1018.8 |
| 20260508093153 | 50 | 330 | 1.0 | 3.0 | 0.00 | 0.00 | 0.00 | 82 | 1018.6 |
| 20260508093048 | 51 | 329 | 0.0 | 2.0 | 0.00 | 0.00 | 0.00 | 81 | 1018.7 |
| 20260508091811 | 51 | 329 | 0.0 | 0.0 | 0.00 | 0.00 | 0.00 | 80 | 1018.6 |
| 20260508091807 | 51 | 329 | 0.0 | 0.0 | 0.00 | 0.00 | 0.00 | 80 | 1018.7 |
| 20260508090758 | 51 | 329 | 0.0 | 0.0 | 0.00 | 0.00 | 0.00 | 79 | 1018.7 |
| 20260508090252 | 51 | 329 | 0.0 | 0.0 | 0.00 | 0.00 | 0.00 | 79 | 1018.6 |
| 20260508085746 | 51 | 329 | 0.0 | 0.0 | 0.00 | 0.00 | 0.00 | 79 | 1018.6 |
| 20260508085239 | 51 | 329 | 0.0 | 0.0 | 0.00 | 0.00 | 0.00 | 79 | 1018.5 |
| 20260508084732 | 52 | 329 | 0.0 | 1.0 | 0.00 | 0.00 | 0.00 | 79 | 1018.6 |
| 20260508084226 | 52 | 329 | 0.0 | 1.0 | 0.00 | 0.00 | 0.00 | 79 | 1018.5 |
| 20260508083720 | 52 | 331 | 0.0 | 0.0 | 0.00 | 0.00 | 0.00 | 79 | 1018.5 |
| 20260508083716 | 52 | 331 | 0.0 | 1.0 | 0.00 | 0.00 | 0.00 | 79 | 1018.5 |
| 20260508082707 | 52 | 331 | 0.0 | 1.0 | 0.00 | 0.00 | 0.00 | 79 | 1018.4 |
| 20260508082201 | 52 | 333 | 0.0 | 1.0 | 0.00 | 0.00 | 0.00 | 79 | 1018.3 |
| 20260508081656 | 52 | 333 | 0.0 | 0.0 | 0.00 | 0.00 | 0.00 | 79 | 1018.4 |
| 20260508081149 | 52 | 333 | 0.0 | 0.0 | 0.00 | 0.00 | 0.00 | 78 | 1018.4 |
| 20260508080643 | 53 | 333 | 0.0 | 0.0 | 0.00 | 0.00 | 0.00 | 78 | 1018.2 |
| 20260508080138 | 53 | 333 | 0.0 | 0.0 | 0.00 | 0.00 | 0.00 | 77 | 1018.3 |
| 20260508075632 | 53 | 333 | 0.0 | 0.0 | 0.00 | 0.00 | 0.00 | 77 | 1018.4 |
| 20260508075126 | 53 | 333 | 0.0 | 0.0 | 0.00 | 0.00 | 0.00 | 76 | 1018.3 |
| 20260508074620 | 53 | 333 | 0.0 | 0.0 | 0.00 | 0.00 | 0.00 | 76 | 1018.4 |
| 20260508074114 | 53 | 333 | 0.0 | 0.0 | 0.00 | 0.00 | 0.00 | 76 | 1018.3 |
| 20260508073608 | 54 | 333 | 0.0 | 0.0 | 0.00 | 0.00 | 0.00 | 76 | 1018.2 |
| 20260508073102 | 54 | 333 | 0.0 | 0.0 | 0.00 | 0.00 | 0.00 | 75 | 1018.1 |
| 20260508072557 | 54 | 333 | 0.0 | 0.0 | 0.00 | 0.00 | 0.00 | 75 | 1018.2 |
| 20260508072049 | 54 | 333 | 0.0 | 0.0 | 0.00 | 0.00 | 0.00 | 74 | 1018.0 |
| 20260508071544 | 54 | 333 | 0.0 | 0.0 | 0.00 | 0.00 | 0.00 | 74 | 1018.0 |
| 20260508071039 | 55 | 333 | 0.0 | 0.0 | 0.00 | 0.00 | 0.00 | 74 | 1017.9 |
| 20260508070532 | 55 | 333 | 0.0 | 0.0 | 0.00 | 0.00 | 0.00 | 74 | 1017.9 |
| 20260508070026 | 55 | 333 | 0.0 | 0.0 | 0.00 | 0.00 | 0.00 | 73 | 1017.9 |
| 20260508065521 | 55 | 333 | 0.0 | 0.0 | 0.00 | 0.00 | 0.00 | 73 | 1018.0 |
| 20260508065015 | 55 | 333 | 0.0 | 0.0 | 0.00 | 0.00 | 0.00 | 73 | 1017.9 |
| 20260508064513 | 55 | 333 | 0.0 | 0.0 | 0.00 | 0.00 | 0.00 | 72 | 1017.9 |
| 20260508064509 | 56 | 333 | 0.0 | 0.0 | 0.00 | 0.00 | 0.00 | 72 | 1018.0 |
| 20260508063456 | 56 | 333 | 0.0 | 0.0 | 0.00 | 0.00 | 0.00 | 72 | 1017.9 |
| 20260508062951 | 56 | 333 | 0.0 | 1.0 | 0.00 | 0.00 | 0.00 | 72 | 1018.0 |
| 20260508062947 | 56 | 333 | 0.0 | 1.0 | 0.00 | 0.00 | 0.00 | 71 | 1018.1 |
| 20260508061938 | 56 | 333 | 0.0 | 2.0 | 0.00 | 0.00 | 0.00 | 71 | 1018.0 |
| 20260508061934 | 56 | 333 | 0.0 | 2.0 | 0.00 | 0.00 | 0.00 | 71 | 1018.0 |
| 20260508060926 | 56 | 301 | 0.0 | 2.0 | 0.00 | 0.00 | 0.00 | 70 | 1018.0 |
| 20260508060424 | 57 | 301 | 0.0 | 2.0 | 0.00 | 0.00 | 0.00 | 70 | 1017.9 |
| 20260508060420 | 57 | 301 | 1.0 | 2.0 | 0.00 | 0.00 | 0.00 | 70 | 1018.0 |
| 20260508055405 | 57 | 301 | 0.0 | 1.0 | 0.00 | 0.00 | 0.00 | 69 | 1017.8 |
| 20260508054858 | 57 | 301 | 0.0 | 1.0 | 0.00 | 0.00 | 0.00 | 69 | 1017.7 |
| 20260508054353 | 58 | 301 | 1.0 | 2.0 | 0.00 | 0.00 | 0.00 | 69 | 1017.8 |
| 20260508053849 | 58 | 301 | 1.0 | 2.0 | 0.00 | 0.00 | 0.00 | 68 | 1017.9 |
| 20260508053341 | 58 | 301 | 0.0 | 2.0 | 0.00 | 0.00 | 0.00 | 68 | 1017.8 |
| 20260508052834 | 58 | 301 | 0.0 | 2.0 | 0.00 | 0.00 | 0.00 | 68 | 1017.9 |
| 20260508052329 | 58 | 301 | 1.0 | 2.0 | 0.00 | 0.00 | 0.00 | 67 | 1017.8 |
| 20260508051824 | 59 | 301 | 1.0 | 4.0 | 0.00 | 0.00 | 0.00 | 67 | 1017.9 |
| 20260508051316 | 59 | 266 | 0.0 | 4.0 | 0.00 | 0.00 | 0.00 | 66 | 1017.9 |
| 20260508050811 | 59 | 14 | 1.0 | 3.0 | 0.00 | 0.00 | 0.00 | 66 | 1017.9 |
| 20260508050305 | 59 | 15 | 1.0 | 3.0 | 0.00 | 0.00 | 0.00 | 66 | 1017.9 |
| 20260508045758 | 60 | 309 | 1.0 | 3.0 | 0.00 | 0.00 | 0.00 | 66 | 1018.0 |
| 20260508045253 | 60 | 308 | 0.0 | 3.0 | 0.00 | 0.00 | 0.00 | 66 | 1018.0 |
| 20260508044749 | 60 | 301 | 1.0 | 2.0 | 0.00 | 0.00 | 0.00 | 66 | 1017.9 |
| 20260508044242 | 60 | 299 | 1.0 | 4.0 | 0.00 | 0.00 | 0.00 | 66 | 1018.0 |
| 20260508043735 | 61 | 304 | 1.0 | 4.0 | 0.00 | 0.00 | 0.00 | 66 | 1018.0 |
| 20260508043228 | 61 | 282 | 1.0 | 2.0 | 0.00 | 0.00 | 0.00 | 65 | 1018.0 |
| 20260508042723 | 62 | 288 | 1.0 | 3.0 | 0.00 | 0.00 | 0.00 | 66 | 1018.0 |
| 20260508042219 | 62 | 285 | 1.0 | 3.0 | 0.00 | 0.00 | 0.00 | 65 | 1017.9 |
| 20260508041710 | 62 | 281 | 1.0 | 3.0 | 0.00 | 0.00 | 0.00 | 65 | 1017.9 |
| 20260508041205 | 63 | 284 | 1.0 | 2.0 | 0.00 | 0.00 | 0.00 | 64 | 1017.7 |
| 20260508040659 | 63 | 284 | 0.0 | 2.0 | 0.00 | 0.00 | 0.00 | 63 | 1017.7 |
| 20260508040152 | 63 | 284 | 0.0 | 2.0 | 0.00 | 0.00 | 0.00 | 62 | 1017.4 |
| 20260508035652 | 64 | 284 | 0.0 | 2.0 | 0.00 | 0.00 | 0.00 | 61 | 1017.6 |
| 20260508035157 | 64 | 284 | 1.0 | 3.0 | 0.00 | 0.00 | 0.00 | 59 | 1017.5 |
| 20260508035152 | 64 | 284 | 0.0 | 1.0 | 0.00 | 0.00 | 0.00 | 59 | 1017.5 |